Flag for Switzerland Weather past 2 weeks in Zürich, Zurich, Switzerland

Now
61 °F

Refreshingly cool.


Feels Like: 61 °F
Forecast: 42 / 71 °F
Wind: 2 mph from North

Location: Zurich Town / Ville.

Current Time: Aug 21, 2014 at 10:06:03 PM

Latest Report: Aug 21, 2014 at 9:00 PM


Visibility: N/A

Pressure: 30.00 "Hg

Humidity: 56%

Dew point: 45 °F

Location of ZürichLocation

Historic Weather in Zürich — Graph

°F

Zürich temperature yesterday

Maximum temperature yesterday: 65 °F (at 3:00 PM)
Minimum temperature yesterday: 54 °F (at 7:00 AM)
Average temperature yesterday: 59 °F

Past Weeks' High & Low Weather Summary

 TemperatureHumidityPressure
High80 °F (Aug 8, 4:00 PM)98% (Aug 10, 9:00 AM)30.22 "Hg (Aug 10, 9:00 AM)
Low49 °F (Aug 17, 7:00 AM)42% (Aug 21, 4:00 PM)29.68 "Hg (Aug 13, 10:00 AM)
Average62 °F76%29.97 "Hg
* Reported Aug 6 8:00 PM — Aug 21 8:00 PM, Zürich, Weather by CustomWeather, © 2014

Note: Actual official high and low records may vary slightly from our data, if they occured in-between our weather recording intervals... More about our weather records

Advertising

Zürich weather history for previous 24 hours

 ConditionsComfort  
Time TempWeatherWind HumidityBarometerVisibility
8:00 PM
Aug 21
63 °FOvercast.2 mph51%29.99 "HgN/A
7:00 PM63 °FMild.3 mph50%29.98 "HgN/A
6:00 PM64 °FMild.2 mph45%29.98 "HgN/A
5:00 PM64 °FMild.2 mph44%29.98 "HgN/A
4:00 PM67 °FMild.3 mph42%29.98 "HgN/A
3:00 PM66 °FMild.5 mph44%30.00 "HgN/A
2:00 PM63 °FMild.3 mph49%30.02 "HgN/A
1:00 PM63 °FMild.3 mph60%30.03 "HgN/A
12:00 PM63 °FMild.3 mph64%30.04 "HgN/A
11:00 AM56 °FCool.1 mph76%30.08 "HgN/A
10:00 AM56 °FCool.1 mph80%30.08 "HgN/A
9:00 AM54 °FCool.2 mph92%30.09 "HgN/A
8:00 AM53 °FScattered clouds.1 mph93%30.09 "HgN/A
7:00 AM52 °FCool.1 mph94%30.09 "HgN/A
6:00 AM52 °FCool.2 mph94%30.09 "HgN/A
5:00 AM53 °FCool.2 mph88%30.09 "HgN/A
4:00 AM53 °FCool.1 mph91%30.09 "HgN/A
3:00 AM53 °FCool.3 mph91%30.09 "HgN/A
2:00 AM53 °FCool.2 mph89%30.08 "HgN/A
1:00 AM54 °FCool.1 mph92%30.08 "HgN/A
12:00 AM56 °FCool.1 mph84%30.04 "HgN/A
11:00 PM
Aug 20
56 °FCool.5 mph77%30.03 "HgN/A
10:00 PM58 °FCool.2 mph76%30.02 "HgN/A
Weather by CustomWeather, © 2014

See weather overviewHow to use our weather pages